Погода в Белокаменском

Россия / Кабардино-Балкарская Республика     43°52′55″N   43°01′17″E
темп.,
°C
ветер,
м/с
пор.,
м/с
влажн.,
%
обл.,
%
осадки,
мм/ч
давл.,
гПа
погр.,
м
18 мая, вт
вт1800:00+14зсз51194100 0.1 1009710
03:00+13сз3896100 1.3 1011465
06:00+13зсз4994100 1.0 1011586
09:00+16сз457718 1.1 1011810
12:00+19с3264100 0.4 10111305
15:00+17в127390 1.8 1012668
18:00+17вюв34769 0.3 1012689
21:00+13ююв33900 0.4 101250
19 мая, ср
ср1900:00+13юв22910 0.0 101143
03:00+11ююв338420 0.0 100946
06:00+12ююв3978100 0.0 1009288
09:00+17вюв24706 0.0 1009657
12:00+18сз566976 0.0 10111021
15:00+12зсз489675 9.4 1015393
18:00+14ссз128716 2.6 1015231
21:00+13вюв118973 2.9 101711
20 мая, чт
чт2000:00+12вюв249299 0.3 1017141
03:00+11юв359451 0.3 1016137
06:00+11ю24865 0.0 1017126
09:00+16юв57695 0.0 1016861
12:00+19вюв56630 0.0 1015990
15:00+20вюв56585 0.0 10141036
18:00+18вюв487182 0.0 1014586
21:00+13ююв348588 0.0 101572
21 мая, пт
пт2100:00+13ююв34850 0.0 101464
03:00+12юв22600 0.0 101320
06:00+13юв22602 0.0 101346
09:00+20вюв46580 0.0 1012359
12:00+23вюв58584 0.0 1011623
15:00+24вюв695949 0.0 1010769
18:00+22юв497413 0.0 1010466
21:00+17юв368813 0.0 1011116
22 мая, сб
сб2200:00+16юв227231 0.0 100934
03:00+17ю114751 0.0 100811
06:00+18юв11499 0.0 100813
09:00+23в23515 0.0 1007255
12:00+26в45575 0.0 1007617
15:00+26в455899 0.0 1007940
18:00+24сз2368100 0.0 100866
21:00+20зюз3380100 0.0 100946